Location: *
(45.1333°S, 169.6333°W)
Time: 21:23:45
(UTC+00:00)

Cosmos 2082 Rocket - Pass Details

Date: 26 May 2022
Orbit: 832 x 854 km, 71.0° (Epoch: 01 July)

Event Time Altitude Azimuth Distance (km) Brightness Sun altitude
Rises 06:30:25 0° 315° (NW) 3,387 6.0 -27.8°
Reaches altitude 10° 06:32:59 10° 308° (NW) 2,458 5.3 -28.3°
Maximum altitude 06:38:20 43° 237° (WSW) 1,168 3.2 -29.2°
Enters shadow 06:40:33 30° 188° (S) 1,472 3.4 -29.6°
